< < Back
Terminal Aerodrome Forecast


Current Version              Previous Versions:   1  2  3  4  5  6  7  8  9  

Terminal Aerodrome Forecast

055
FTUS44 KMOB 081120
TAFPNS
TAF
KPNS 081120Z 0812/0912 25007KT P6SM SKC
     FM081500 28015G23KT P6SM FEW040 FEW100
     FM081800 30022G32KT P6SM SCT050
     FM090600 29017KT P6SM SKC=

Latest METAR

412
SAUS70 KWBC 082300 RRJ
MTRPNS
METAR KPNS 082253Z 31017G25KT 10SM CLR 13/M08 A2989 RMK AO2 PK WND
32029/2211 SLP126 T01331083


USA.gov is the U.S. government's official web portal to all federal, state and local government web resources and services.